[[{"header":{"parameterUnit":"m.s-1","parameterCategory":1,"la1":30.2991,"la2":30.254,"lo1":-89.0895,"lo2":-89.0444,"dy":0.0017,"dx":0.0017,"nx":28,"ny":28,"refTime":"2025-07-04T03:00:00:Z","depth":0,"parameterNumber":2,"parameterNumberName":"U-component_of_WINDS"},"data":[0,0,0,0,0,0,0,0,0,0,0,0,0,0,0,0,0,0,0,0,0,0,0,0,0,0,0,0,0,0,0,0,0,0,0,0,0,0,0,0,0,0,0,0,0,0,0,0,0,0,0,0,0,0,0,0,0,0,1.3516,1.3519,0,1.3765,1.3768,1.3771,1.3835,1.3834,1.3832,1.3831,1.409,1.4098,1.4106,0,0,0,0,0,0,0,0,0,0,0,0,0,1.3102,1.3109,1.3516,1.3519,1.3522,1.3765,1.3768,1.3771,1.3835,1.3833,1.3832,1.383,1.4087,1.4097,1.4107,0,0,0,0,0,0,0,0,0,0,0,0,0,1.3309,1.3111,1.3515,1.3583,1.3592,1.3764,1.3768,1.3772,1.3836,1.3833,1.3831,1.3829,1.4084,1.4096,1.4108,1.4232,0,0,1.4147,1.4152,0,0,0,0,0,0,0,0,1.3297,1.3324,1.357,1.3579,1.3589,1.3767,1.3717,1.3927,1.3836,1.3743,1.383,1.3828,1.3984,1.4005,1.4057,1.4244,1.4256,1.4148,1.4155,1.4161,1.4164,0,0,0,0,0,0,0,1.3283,1.3314,1.3615,1.3574,1.3585,1.3603,1.363,1.3757,1.3874,1.3751,1.3756,1.3785,1.3989,1.4045,1.4064,1.4259,1.4147,1.4159,1.4166,1.4171,1.4565,1.4568,0,0,0,0,0,0,1.3256,1.3302,1.3607,1.3622,1.3434,1.3612,1.3643,1.3712,1.3873,1.3895,1.3786,1.3787,1.4024,1.4049,1.4073,1.4232,1.4161,1.4172,1.418,1.4563,1.4566,1.4569,0,0,0,0,0,0,1.3247,1.3283,1.3597,1.3464,1.3505,1.3622,1.3699,1.3718,1.3774,1.3899,1.3921,1.3821,1.4024,1.4055,1.4193,1.4241,1.4178,1.4189,1.4559,1.4564,1.4568,1.4548,0,0,0,0,0,0,1.3235,1.3279,1.3326,1.3464,1.3512,1.371,1.3702,1.3725,1.3795,1.3797,1.3938,1.3959,1.4024,1.4174,1.4205,1.4258,1.4199,1.4555,1.4561,1.4566,1.4545,1.4551,1.4556,0,0,0,0,0,1.322,1.331,1.3328,1.3364,1.3572,1.3713,1.374,1.3812,1.3798,1.3847,1.3929,1.3955,1.423,1.4187,1.4223,1.428,1.4553,1.4559,1.4566,1.4542,1.455,1.4556,0,0,0,0,0,0,1.3175,1.3329,1.3351,1.3488,1.3587,1.3723,1.3788,1.3818,1.3924,1.3922,1.4008,1.4039,1.4172,1.424,1.4189,1.4411,1.4392,1.4406,1.4361,1.437,1.4375,1.4357,1.421,0,0,0,0,0,1.3181,1.3281,1.3411,1.352,1.3568,1.3669,1.3733,1.378,1.3887,1.3929,1.402,1.4124,1.4235,1.4306,1.4414,1.4554,1.4588,1.4611,1.4617,1.4621,1.4633,1.4716,1.4729,1.4591,1.4591,1.4591,0,0,1.3195,1.3292,1.3349,1.3513,1.3595,1.37,1.3704,1.3813,1.3892,1.3946,1.4082,1.4153,1.4275,1.4415,1.4481,1.4475,1.4679,1.463,1.4632,1.4642,1.4724,1.4737,1.4749,1.4596,1.4595,1.4594,0,0,1.3274,1.3355,1.3457,1.3539,1.3663,1.373,1.3754,1.3887,1.3936,1.4074,1.4118,1.4214,1.4401,1.4487,1.4555,1.4669,1.4699,1.4702,1.4734,1.4813,1.4824,1.4835,1.4878,1.4893,1.4713,1.4713,1.4713,0,1.3276,1.3432,1.3505,1.3613,1.3685,1.3738,1.3844,1.392,1.4074,1.4124,1.4115,1.4353,1.4439,1.4602,1.463,1.4682,1.4715,1.4687,1.4816,1.4827,1.4838,1.4881,1.4897,1.4713,1.4713,1.4713,1.4713,0,1.343,1.3538,1.3605,1.3752,1.3832,1.3937,1.4029,1.4101,1.4142,1.421,1.4352,1.4456,1.4588,1.463,1.467,1.48,1.4793,1.4799,1.4783,1.485,1.4892,1.4909,1.4713,1.4713,1.4713,1.4713,0,0,1.3487,1.3674,1.3698,1.3767,1.3908,1.3995,1.4104,1.4232,1.4294,1.4399,1.4495,1.4654,1.4661,1.4739,1.479,1.4859,1.4947,1.4858,1.4862,1.4873,1.51,1.5097,1.5114,1.4967,1.497,1.4973,1.5091,0,1.3586,1.3782,1.3852,1.4014,1.4117,1.417,1.4266,1.4365,1.4433,1.4532,1.4607,1.4719,1.4719,1.4766,1.4838,1.4921,1.4994,1.4913,1.506,1.5064,1.503,1.5136,1.5132,1.5238,1.5108,1.5111,1.5113,0,1.3726,1.3833,1.4005,1.4137,1.4183,1.4268,1.4393,1.4485,1.46,1.4645,1.4732,1.4779,1.4899,1.4873,1.5042,1.4985,1.5049,1.51,1.5106,1.5124,1.5094,1.5159,1.5274,1.5291,1.5138,1.5136,1.5135,0,1.3755,1.3941,1.4069,1.4126,1.4282,1.4341,1.4409,1.4521,1.4595,1.4705,1.4754,1.4876,1.4944,1.5039,1.5119,1.5093,1.5281,1.5262,1.5325,1.5323,1.5363,1.536,1.5492,1.54,1.54,1.54,1.5399,0,1.3859,1.3963,1.4084,1.4163,1.4283,1.4364,1.448,1.4552,1.4652,1.4748,1.4801,1.4891,1.4989,1.5093,1.5156,1.5288,1.5317,1.5359,1.5375,1.5355,1.535,1.54,1.5396,1.5404,1.5403,1.5402,1.5401,0,1.3911,1.3996,1.414,1.4276,1.4313,1.4395,1.4514,1.4594,1.4664,1.4785,1.4819,1.493,1.5054,1.5143,1.5303,1.5346,1.5488,1.5503,1.5449,1.5458,1.5517,1.5511,1.5687,1.5716,1.5602,1.5603,1.5604,0,1.3972,1.4054,1.4199,1.4267,1.4335,1.4443,1.4519,1.4602,1.4679,1.4818,1.4882,1.501,1.5117,1.5314,1.541,1.5534,1.5554,1.5607,1.5573,1.5552,1.5559,1.5554,1.5564,1.5613,1.5613,1.5614,1.5615,0,1.4074,1.4113,1.4219,1.4341,1.4429,1.453,1.4631,1.4684,1.4786,1.487,1.4998,1.508,1.5245,1.5373,1.5506,1.5579,1.5616,1.5624,1.5646,1.5628,1.5595,1.5617,1.5466,1.5621,1.562,1.562,1.5619,1.5619,1.4135,1.4211,1.4326,1.4444,1.4529,1.4623,1.4706,1.4787,1.4894,1.5033,1.5076,1.521,1.5326,1.5509,1.5584,1.5691,1.5689,1.5719,1.5727,1.5734,1.5735,1.5576,1.5716,1.5716,1.5716,1.5716,1.5716,0,1.4242,1.4319,1.4426,1.4566,1.466,1.4683,1.4798,1.4875,1.4991,1.5095,1.5199,1.5348,1.5473,1.5579,1.5709,1.5775,1.5795,1.5807,1.5804,1.5821,1.5729,1.5698,1.5788,1.5788,1.5788,1.5788,1.5788,1.5788,1.4309,1.444,1.4493,1.4668,1.4745,1.4875,1.4938,1.5027,1.5111,1.5273,1.5377,1.5445,1.5552,1.5691,1.5807,1.5836,1.5883,1.5891,1.5923,1.5835,1.5827,1.5819,1.5791,1.5899,1.59,1.6008,1.6009,1.6009]},{"header":{"parameterUnit":"m.s-1","parameterCategory":1,"la1":30.2991,"la2":30.254,"lo1":-89.0895,"lo2":-89.0444,"dy":0.0017,"dx":0.0017,"nx":28,"ny":28,"refTime":"2025-07-04T03:00:00:Z","depth":0,"parameterNumber":3,"parameterNumberName":"V-component_of_WINDS"},"data":[0,0,0,0,0,0,0,0,0,0,0,0,0,0,0,0,0,0,0,0,0,0,0,0,0,0,0,0,0,0,0,0,0,0,0,0,0,0,0,0,0,0,0,0,0,0,0,0,0,0,0,0,0,0,0,0,0,0,-1.0214,-1.0213,0,-1.0135,-1.0135,-1.0134,-1.0128,-1.0128,-1.0129,-1.013,-1.0048,-1.0045,-1.0042,0,0,0,0,0,0,0,0,0,0,0,0,0,-1.0358,-1.0356,-1.0214,-1.0213,-1.0212,-1.0136,-1.0134,-1.0133,-1.0127,-1.0129,-1.013,-1.0131,-1.0049,-1.0045,-1.0042,0,0,0,0,0,0,0,0,0,0,0,0,0,-1.0289,-1.0355,-1.0214,-1.02,-1.0198,-1.0136,-1.0134,-1.0133,-1.0127,-1.0129,-1.013,-1.0131,-1.005,-1.0046,-1.0041,-0.9987,0,0,-1.0027,-1.0025,0,0,0,0,0,0,0,0,-1.0293,-1.0284,-1.0203,-1.0201,-1.0199,-1.0143,-1.0155,-1.0084,-1.0127,-1.0154,-1.013,-1.0132,-1.0078,-1.0072,-1.0054,-0.9983,-0.998,-1.0027,-1.0024,-1.0022,-1.0021,0,0,0,0,0,0,0,-1.0298,-1.0287,-1.0183,-1.0202,-1.0199,-1.0197,-1.0189,-1.0142,-1.011,-1.0152,-1.0151,-1.0142,-1.0077,-1.0058,-1.0052,-0.9979,-1.0027,-1.0023,-1.002,-1.0019,-0.986,-0.9858,0,0,0,0,0,0,-1.0306,-1.0291,-1.0186,-1.0181,-1.025,-1.0194,-1.0184,-1.0159,-1.011,-1.0104,-1.0141,-1.0142,-1.0065,-1.0057,-1.0049,-0.9982,-1.0022,-1.0018,-1.0016,-0.9861,-0.9859,-0.9858,0,0,0,0,0,0,-1.0309,-1.0296,-1.0189,-1.0236,-1.0222,-1.019,-1.0162,-1.0157,-1.0138,-1.0102,-1.0096,-1.0127,-1.0066,-1.0055,-1.0003,-0.9979,-1.0016,-1.0012,-0.9863,-0.9861,-0.9858,-0.9847,0,0,0,0,0,0,-1.0313,-1.0297,-1.0277,-1.0235,-1.0219,-1.0144,-1.016,-1.0155,-1.013,-1.0131,-1.0088,-1.0082,-1.0066,-1.0009,-0.9998,-0.9973,-1.0009,-0.9865,-0.9862,-0.9859,-0.985,-0.9845,-0.9841,0,0,0,0,0,-1.0318,-1.0277,-1.0276,-1.0263,-1.0193,-1.0143,-1.0133,-1.0117,-1.0129,-1.0107,-1.0084,-1.0083,-0.9984,-1.0004,-0.9991,-0.9965,-0.9866,-0.9863,-0.9859,-0.9852,-0.9846,-0.9841,0,0,0,0,0,0,-1.0315,-1.0271,-1.0269,-1.0213,-1.0182,-1.0142,-1.0114,-1.0111,-1.0075,-1.0077,-1.0057,-1.0048,-0.9996,-0.9975,-0.9999,-0.991,-0.9926,-0.992,-0.9925,-0.9919,-0.9915,-0.992,-1.0005,0,0,0,0,0,-1.0308,-1.0272,-1.0235,-1.0189,-1.0173,-1.0147,-1.0124,-1.0114,-1.008,-1.0067,-1.004,-1.0007,-0.9968,-0.9943,-0.9905,-0.9848,-0.9837,-0.9823,-0.9819,-0.9815,-0.981,-0.9777,-0.977,-0.9846,-0.9846,-0.9847,0,0,-1.0293,-1.0264,-1.0242,-1.0187,-1.0162,-1.0123,-1.0135,-1.0094,-1.0065,-1.006,-1.0008,-0.9988,-0.995,-0.9894,-0.9869,-0.9876,-0.9786,-0.9811,-0.9808,-0.9804,-0.9773,-0.9765,-0.9759,-0.9844,-0.9845,-0.9845,0,0,-1.0246,-1.0221,-1.0179,-1.0154,-1.0115,-1.0098,-1.0088,-1.0048,-1.0034,-0.9983,-0.9978,-0.9943,-0.9877,-0.985,-0.9827,-0.9771,-0.9768,-0.9759,-0.9735,-0.9704,-0.9698,-0.9692,-0.967,-0.9663,-0.9754,-0.9754,-0.9754,0,-1.0231,-1.0174,-1.0158,-1.0117,-1.0093,-1.0088,-1.0045,-1.0021,-0.9972,-0.9955,-0.9964,-0.9881,-0.9855,-0.9792,-0.9779,-0.9761,-0.9748,-0.9763,-0.97,-0.9694,-0.9689,-0.9668,-0.966,-0.9753,-0.9753,-0.9753,-0.9753,0,-1.0157,-1.0118,-1.0089,-1.0042,-1.0015,-0.9973,-0.9951,-0.9925,-0.9918,-0.99,-0.9847,-0.9816,-0.9771,-0.9757,-0.9749,-0.9693,-0.9698,-0.9704,-0.972,-0.9681,-0.9661,-0.9653,-0.9752,-0.9752,-0.9752,-0.9752,0,0,-1.0104,-1.005,-1.0039,-1.0018,-0.9975,-0.9944,-0.9902,-0.9859,-0.9837,-0.9804,-0.9768,-0.9712,-0.9717,-0.9692,-0.9682,-0.9654,-0.961,-0.9663,-0.9662,-0.9653,-0.9545,-0.9539,-0.953,-0.9609,-0.9607,-0.9606,-0.9547,0,-1.005,-0.9976,-0.9961,-0.9896,-0.9859,-0.9854,-0.9817,-0.9787,-0.9769,-0.9735,-0.9715,-0.9676,-0.9686,-0.9671,-0.9643,-0.9621,-0.9587,-0.9625,-0.9573,-0.9572,-0.9581,-0.952,-0.9514,-0.946,-0.954,-0.9538,-0.9537,0,-0.9977,-0.9942,-0.9874,-0.9836,-0.982,-0.9787,-0.9747,-0.9714,-0.968,-0.9669,-0.9641,-0.9634,-0.959,-0.9609,-0.9548,-0.9574,-0.9553,-0.9538,-0.9536,-0.9529,-0.9551,-0.9509,-0.9443,-0.9434,-0.9525,-0.9526,-0.9527,0,-0.9943,-0.9879,-0.983,-0.9812,-0.9767,-0.9744,-0.9724,-0.9691,-0.9666,-0.9631,-0.9615,-0.9575,-0.9553,-0.9522,-0.9504,-0.9521,-0.9444,-0.9462,-0.9433,-0.9433,-0.9415,-0.9416,-0.9342,-0.9404,-0.9404,-0.9405,-0.9405,0,-0.9883,-0.9841,-0.9813,-0.9783,-0.9735,-0.9719,-0.9673,-0.9653,-0.9624,-0.9589,-0.9584,-0.9551,-0.953,-0.9495,-0.9481,-0.9431,-0.9422,-0.9411,-0.9407,-0.941,-0.9411,-0.9394,-0.9396,-0.9402,-0.9403,-0.9403,-0.9404,0,-0.9835,-0.9816,-0.9761,-0.9724,-0.9714,-0.968,-0.9648,-0.9618,-0.9601,-0.9557,-0.9545,-0.9518,-0.9476,-0.9456,-0.9404,-0.9394,-0.9338,-0.9338,-0.9349,-0.9347,-0.9318,-0.932,-0.9229,-0.9215,-0.9289,-0.9288,-0.9287,0,-0.9798,-0.9765,-0.9724,-0.9701,-0.968,-0.9643,-0.9618,-0.9601,-0.9575,-0.9534,-0.9508,-0.9466,-0.9431,-0.9364,-0.9339,-0.9299,-0.9297,-0.9268,-0.9291,-0.9295,-0.9294,-0.9296,-0.9292,-0.9263,-0.9262,-0.9262,-0.9261,0,-0.9732,-0.9724,-0.9688,-0.9648,-0.9619,-0.9587,-0.9556,-0.9537,-0.9515,-0.9486,-0.9443,-0.9416,-0.9363,-0.9321,-0.9279,-0.9259,-0.9256,-0.9255,-0.9245,-0.9247,-0.9254,-0.9248,-0.9336,-0.9256,-0.9257,-0.9257,-0.9257,-0.9257,-0.9686,-0.9657,-0.9624,-0.9584,-0.9559,-0.953,-0.95,-0.9479,-0.9443,-0.9399,-0.9391,-0.9345,-0.9312,-0.9256,-0.9234,-0.9198,-0.9204,-0.9191,-0.9188,-0.9184,-0.9182,-0.9262,-0.9191,-0.9191,-0.9191,-0.9191,-0.9191,0,-0.9619,-0.9597,-0.9561,-0.9518,-0.9486,-0.9488,-0.9453,-0.9427,-0.9387,-0.9356,-0.9322,-0.9273,-0.9232,-0.9205,-0.9163,-0.914,-0.9137,-0.9129,-0.9129,-0.9124,-0.9179,-0.919,-0.9132,-0.9132,-0.9132,-0.9132,-0.9132,-0.9132,-0.958,-0.953,-0.9518,-0.9455,-0.9434,-0.9389,-0.9369,-0.9343,-0.9318,-0.9263,-0.9229,-0.9212,-0.9183,-0.914,-0.9102,-0.9095,-0.908,-0.9071,-0.9064,-0.9115,-0.9121,-0.9127,-0.9137,-0.9068,-0.9068,-0.9012,-0.9012,-0.9011]}]]